Theta_e
290 290 290 291 291 291 291 291 291 292 292 293 293 293 293 293 294 295 294 304 309 310 311 313 313 314 314 315 316 317 317 318 318 319 319 321 323 323 323 324 327 330 331
289 290 290 291 291 290 291 291 290 291 291 292 292 293 293 293 294 294 294 294 305 307 309 310 311 312 313 313 315 315 315 316 318 319 320 319 320 322 322 322 323 327 329
290 290 290 289 290 290 291 291 290 290 290 292 290 292 292 292 293 293 294 293 295 302 306 307 309 311 312 313 314 315 315 316 318 318 319 319 319 321 320 321 323 324 327
291 290 290 289 290 290 290 290 289 289 288 288 288 289 289 290 292 292 292 293 293 295 298 304 308 309 310 312 313 315 316 316 317 317 318 318 320 320 319 320 321 323 324
293 290 290 290 290 289 289 289 289 287 287 288 290 289 288 288 291 291 290 292 293 293 294 299 304 306 308 311 314 314 314 315 316 317 317 318 319 319 320 321 321 321 324
292 291 291 291 290 289 289 288 287 288 288 287 290 290 287 288 289 289 289 292 292 293 293 293 294 296 305 308 310 312 312 315 315 316 317 318 319 319 320 319 321 321 321
292 291 290 291 290 289 288 288 288 287 287 288 285 288 286 286 287 290 289 289 291 292 292 293 294 295 297 305 306 309 312 312 314 315 316 318 319 320 319 320 319 322 323
292 292 291 290 290 289 289 288 287 286 287 288 285 283 281 283 286 289 288 290 290 292 292 293 293 294 296 297 299 306 308 312 315 315 316 318 318 320 320 320 320 320 321
292 292 291 290 290 289 289 288 288 287 286 287 287 285 280 279 283 286 287 288 289 291 290 292 294 295 295 296 299 301 306 311 314 316 318 318 319 320 320 320 321 320 321
292 292 291 291 290 290 289 289 292 288 286 286 286 289 287 285 281 281 286 287 289 290 290 292 293 294 295 295 299 302 307 309 312 315 317 319 321 322 324 324 322 322 323
291 292 291 290 290 290 290 289 289 289 287 286 285 285 285 285 283 282 282 286 289 291 291 291 292 292 294 295 297 301 307 308 311 313 315 317 319 322 323 324 325 323 323
290 291 292 290 290 289 289 290 289 289 289 288 286 285 285 284 283 283 281 285 288 291 293 293 291 292 293 294 298 305 305 307 309 311 313 314 316 318 320 322 323 323 319
289 290 290 290 289 290 290 290 289 289 289 288 287 286 286 286 287 287 285 288 288 290 291 293 290 291 295 294 295 301 300 304 307 309 311 312 313 314 317 321 319 318 321
289 290 290 290 290 290 291 290 289 289 289 289 288 287 286 286 286 287 287 288 287 288 288 287 289 291 295 293 296 300 294 301 304 306 309 311 312 312 315 316 318 322 321
291 290 291 290 291 291 290 289 288 288 288 289 288 288 286 286 287 287 286 290 289 285 285 287 286 291 293 291 294 293 292 299 302 305 307 310 310 311 312 314 316 319 321
290 290 290 290 290 290 290 288 287 288 287 288 290 288 287 286 287 286 287 290 291 289 285 289 290 291 291 291 293 290 291 296 298 303 305 307 309 310 311 311 312 313 315
289 289 290 290 290 290 289 288 287 287 287 287 290 289 288 287 286 286 287 290 292 290 287 289 291 291 287 286 288 289 290 291 291 300 303 305 307 307 308 309 309 311 311
289 289 290 290 289 289 289 287 287 288 287 289 289 289 288 290 287 286 286 287 292 292 289 287 289 289 289 289 286 286 288 290 289 296 300 303 304 305 306 306 307 308 309
288 288 289 288 288 289 288 288 287 287 289 289 288 288 289 287 285 285 286 287 292 293 291 289 288 289 289 287 286 286 286 285 289 294 296 297 300 302 304 304 304 305 307
288 287 288 288 288 288 289 288 287 288 288 289 290 289 289 288 285 286 287 288 293 292 291 290 289 287 288 289 288 286 284 284 284 288 291 294 296 298 301 302 303 303 304
288 288 287 287 287 288 289 286 287 288 288 288 289 290 290 292 296 294 291 290 292 291 290 288 287 286 287 286 285 287 286 281 280 283 283 284 285 289 294 299 299 300 301
287 287 286 287 286 288 294 297 294 287 288 288 288 288 289 294 291 296 297 298 296 288 289 288 287 286 286 286 287 286 285 284 282 286 283 282 284 289 291 295 298 299 299
287 286 286 286 285 285 295 298 298 291 289 288 287 287 289 290 291 287 292 295 292 295 294 290 287 287 286 286 286 284 279 284 284 286 287 283 286 287 289 291 296 297 297
287 286 286 285 285 286 295 297 299 291 289 288 287 287 286 286 286 289 287 285 285 285 286 290 290 290 290 287 285 285 284 284 285 287 287 280 284 286 286 285 293 294 295
286 286 286 286 284 285 294 297 297 289 288 288 288 288 286 285 291 295 287 284 283 283 290 294 295 297 296 295 290 283 278 278 282 281 288 285 285 282 281 282 284 292 293
288 288 287 286 289 285 293 297 296 289 287 287 288 288 295 291 294 295 285 283 276 279 283 283 283 285 287 287 293 284 282 278 276 276 281 280 279 279 278 280 281 283 283
Wind_Speed
3 2 2 2 3 3 3 4 4 4 5 6 6 6 7 7 7 4 3 18 15 16 17 18 18 18 19 20 22 22 21 23 24 25 22 23 23 22 22 23 24 24 22
2 2 3 3 3 3 3 3 4 4 4 4 6 6 6 6 6 6 4 6 17 18 17 18 20 21 22 21 22 23 24 22 22 23 25 24 23 25 24 24 25 24 24
2 3 2 3 3 3 4 4 4 4 4 5 6 6 5 6 5 6 6 5 7 16 19 19 19 19 21 23 23 22 21 22 22 22 24 25 25 26 26 26 26 26 26
2 3 2 3 4 3 3 3 3 4 4 4 4 5 4 5 6 6 6 5 5 5 12 21 21 20 22 21 22 20 20 21 22 22 23 25 26 28 29 28 27 28 29
1 1 2 3 3 3 4 3 3 2 4 5 6 5 4 4 4 6 7 6 6 6 5 14 20 21 22 21 22 21 23 22 23 24 24 26 26 28 29 29 31 29 31
1 0 1 3 3 3 4 3 2 3 3 4 6 7 4 2 3 6 6 6 6 8 7 8 7 9 21 22 22 23 24 24 25 26 26 28 29 30 30 31 30 33 31
3 1 1 2 2 2 3 3 2 3 4 4 4 4 4 3 3 8 4 5 6 8 8 8 6 6 8 21 23 23 24 24 27 26 29 31 33 32 31 32 32 32 32
4 3 3 2 2 2 4 4 2 3 3 3 3 1 5 5 4 5 4 5 6 6 7 9 8 9 8 7 14 23 22 24 27 28 31 34 34 33 32 34 35 35 35
5 4 4 3 3 2 3 3 3 2 2 3 2 1 3 3 7 3 4 4 6 6 5 7 9 9 9 8 13 16 23 27 27 31 34 29 29 32 37 37 37 37 36
5 5 5 5 4 3 4 3 2 2 1 3 3 1 4 3 3 7 2 4 5 7 7 7 7 8 9 8 15 20 25 26 27 32 35 29 25 32 39 42 40 39 36
5 5 5 6 5 3 4 5 4 3 2 2 2 2 2 2 3 4 8 10 5 6 5 5 6 6 8 9 9 14 25 26 28 29 34 29 31 39 33 31 39 38 35
4 5 5 5 5 5 5 5 4 4 4 3 3 4 3 3 3 3 4 7 9 8 7 7 5 6 7 7 14 23 25 27 29 31 30 31 30 38 38 40 20 36 34
3 6 4 5 4 5 5 5 4 4 4 3 4 4 3 4 2 3 2 6 9 8 4 5 4 4 7 7 9 21 23 26 28 30 30 30 31 35 40 16 19 28 32
4 4 5 5 6 5 5 5 3 4 5 4 6 5 4 4 2 3 2 4 7 5 4 7 4 4 6 6 13 23 13 24 27 28 28 30 26 29 34 37 46 19 32
5 6 6 6 6 6 6 5 4 5 4 4 5 5 3 4 3 3 3 3 4 6 7 4 4 6 5 5 11 11 12 21 24 26 27 30 26 27 32 38 41 40 17
6 6 6 6 6 6 5 5 5 5 5 4 4 5 4 3 4 3 3 4 3 3 4 5 7 8 6 5 11 10 12 19 23 25 26 28 27 29 29 31 36 39 44
7 6 6 6 6 6 6 5 6 6 6 5 5 5 6 4 4 4 4 4 5 3 4 7 4 8 5 4 8 8 9 9 10 23 23 25 26 28 29 28 33 36 34
6 7 6 6 6 6 6 6 6 6 6 6 6 5 6 3 6 5 4 6 5 3 3 8 5 3 7 5 7 8 7 8 8 18 22 23 25 26 26 27 29 28 25
7 6 6 6 7 7 6 6 6 6 6 5 6 6 7 5 6 4 5 5 5 4 3 3 5 2 5 3 5 5 5 5 6 19 20 22 21 21 25 29 28 26 26
7 7 7 7 7 6 6 6 6 6 6 5 5 6 6 6 6 7 5 5 4 3 3 2 3 5 4 5 5 6 7 3 3 7 11 18 20 19 23 24 26 27 25
7 7 6 6 6 6 5 6 6 7 6 7 6 5 6 8 13 9 3 5 3 2 1 2 3 3 3 4 5 4 4 4 3 2 4 5 6 7 10 16 19 24 22
7 6 7 7 7 5 13 15 11 6 7 6 6 6 5 10 8 11 9 12 9 3 1 2 4 3 4 3 3 4 3 4 5 4 4 4 4 8 9 9 20 21 22
7 8 7 7 8 7 15 16 16 5 6 6 6 5 5 4 5 4 8 7 7 8 6 2 4 2 3 3 3 5 3 4 2 4 4 5 4 5 5 8 20 20 20
9 7 8 7 7 7 15 16 16 5 5 6 6 6 6 6 5 6 2 4 4 5 5 4 3 5 4 4 2 2 3 4 2 3 4 3 4 4 5 4 16 18 18
6 7 6 8 7 7 15 15 13 4 5 6 5 5 5 6 9 10 3 2 5 5 5 7 8 9 9 6 2 2 3 3 3 2 3 2 3 3 3 4 5 16 15
9 7 8 7 11 8 14 15 12 4 5 4 4 5 9 7 10 10 4 2 3 5 4 5 4 5 4 4 6 2 1 1 1 3 3 3 4 3 4 3 5 6 7
Wind_Direction
38 16 5 341 341 338 349 353 348 343 342 336 330 325 322 323 327 328 319 351 351 347 340 333 325 331 320 325 318 314 310 307 300 295 287 291 290 284 276 277 285 280 274
32 35 19 357 336 331 327 349 348 341 331 331 325 320 317 320 323 327 324 336 348 355 351 345 335 323 319 316 316 312 305 301 297 298 295 289 280 285 282 273 272 280 280
40 37 20 357 337 326 329 354 346 339 344 334 327 319 324 328 329 331 335 336 337 342 347 341 333 325 323 321 312 309 304 302 301 298 292 293 289 282 274 274 274 264 268
57 32 17 360 339 347 344 340 316 317 315 320 308 305 330 334 333 338 341 335 336 337 339 338 337 334 327 315 311 313 312 310 304 301 299 285 284 285 279 275 267 272 267
76 63 25 337 351 359 8 338 323 327 315 324 323 316 319 324 331 339 334 337 330 329 323 329 334 334 332 321 320 319 318 315 310 305 304 297 287 278 273 274 271 261 266
222 134 3 4 13 13 357 348 309 316 286 299 318 308 298 324 330 353 335 339 325 327 322 319 315 316 327 333 324 318 314 319 317 307 304 302 296 283 274 264 264 264 258
234 229 339 343 6 8 306 306 310 332 314 330 322 353 331 359 313 348 322 320 319 332 318 318 316 310 308 321 328 319 316 315 314 309 303 302 299 283 271 269 259 256 254
243 222 236 257 284 309 328 324 4 332 296 349 347 321 348 333 308 311 317 327 324 321 317 321 315 310 308 305 315 328 319 313 314 316 310 301 291 281 276 268 261 253 250
237 228 233 236 256 243 287 301 300 357 316 310 34 136 350 303 326 287 312 329 322 322 305 321 316 314 311 306 315 313 313 315 325 325 318 305 297 281 277 267 258 252 247
251 239 233 230 244 245 267 271 280 262 168 291 317 228 237 229 301 326 281 317 319 331 313 317 314 312 311 310 313 314 311 333 327 328 335 324 317 310 289 261 251 243 242
249 248 234 226 241 236 255 263 287 288 208 245 210 287 275 266 234 253 309 332 329 326 310 303 306 304 309 313 313 311 339 332 334 334 340 339 340 335 319 279 236 234 231
254 250 237 222 241 247 254 269 271 267 262 248 242 240 232 237 268 258 273 311 319 327 318 317 310 316 314 318 321 324 340 333 339 345 347 348 343 343 348 323 236 228 229
236 245 226 229 237 243 256 261 266 268 267 260 260 265 238 246 233 240 242 297 317 315 293 307 296 309 309 322 314 335 336 335 337 342 352 352 355 353 348 356 270 239 229
228 241 243 240 249 253 260 261 264 265 256 257 278 257 266 261 246 234 241 301 311 316 308 298 292 299 316 320 326 342 329 334 340 341 351 354 356 358 358 3 351 227 234
237 239 239 246 249 255 254 258 263 272 270 266 273 277 261 270 262 255 239 243 291 315 324 310 302 298 305 318 327 343 327 330 340 344 350 352 2 360 16 11 6 29 7
232 242 245 243 254 255 252 247 263 269 270 270 262 288 281 269 276 264 261 257 236 270 288 318 309 303 311 336 345 341 333 345 343 347 354 356 8 9 21 17 11 17 24
228 233 236 243 247 254 250 242 254 265 264 275 280 282 286 276 273 278 271 270 266 213 277 303 291 306 312 350 337 334 341 340 339 348 358 357 11 12 17 29 22 24 30
226 228 235 236 246 248 247 237 251 267 262 267 280 288 281 286 285 277 272 276 267 254 248 294 309 305 319 331 329 333 335 345 336 353 359 4 10 9 17 24 38 28 33
228 234 230 229 238 243 243 241 238 256 258 255 266 269 271 280 281 287 278 280 273 271 263 269 302 300 313 303 314 312 327 331 352 358 355 4 10 16 11 21 31 36 25
222 226 225 230 232 242 237 238 240 251 251 255 259 262 266 265 259 275 280 275 279 268 297 299 318 320 314 320 318 321 339 338 331 359 357 8 1 14 28 22 24 33 35
220 223 224 231 235 236 237 229 233 238 244 260 267 265 264 266 267 290 268 287 284 278 274 343 317 292 298 327 334 320 315 316 312 315 339 358 337 356 10 27 30 27 39
215 216 226 227 234 235 246 252 245 217 235 239 259 277 270 285 289 301 300 315 328 313 313 327 324 311 304 292 291 326 312 335 1 340 357 332 359 22 4 20 23 23 27
209 218 224 224 235 235 251 255 257 230 223 229 244 264 281 258 283 295 302 331 330 324 319 245 309 294 288 273 301 326 348 342 324 316 340 332 352 33 13 8 26 20 25
212 216 222 223 230 243 249 254 257 245 219 232 240 252 255 262 260 266 234 314 322 309 293 288 246 260 245 250 189 260 281 282 279 304 359 14 331 343 343 1 9 24 28
206 205 208 219 221 241 249 251 256 216 230 242 248 248 235 249 256 272 178 307 313 308 312 304 291 291 306 314 162 41 341 9 360 325 340 355 329 319 328 314 341 9 12
214 207 221 213 225 232 246 246 250 200 226 233 255 252 269 248 246 255 174 207 284 275 307 324 328 331 336 314 313 166 189 4 319 347 293 28 339 5 343 310 332 348 354